Theta_e
291 291 290 290 290 290 290 290 290 290 289 289 289 289 289 289 288 288 288 288 288 287 287 287 287 286 286 286 286 286 286 286 286 286 286 286 286 286 286 286 286 286 286 286 286 286 286 286 286 286 286 286 286 286 286 285 285 285 285 285 285 285 284 284 283 284 285 285 285 286 286 286 286 286 286 286 287 287 288 288 289 289 289 289 289
290 290 290 290 290 290 290 290 289 289 289 289 289 289 289 289 288 288 288 288 288 287 287 287 287 286 286 286 286 286 286 286 286 286 286 286 286 286 286 286 286 286 286 286 286 285 285 285 285 285 285 285 285 285 285 285 285 285 284 283 283 283 283 283 282 283 284 285 285 285 285 285 286 286 286 285 286 286 287 287 288 288 289 289 289
290 290 290 290 290 290 290 289 289 289 289 290 289 289 289 288 288 288 288 288 287 287 287 287 287 286 286 286 286 285 285 286 285 285 285 286 285 285 285 285 285 285 285 285 285 285 285 285 285 285 285 285 285 285 285 285 285 284 284 283 282 282 281 280 281 281 282 284 284 284 284 284 285 286 286 286 286 286 286 286 287 287 288 288 288
289 290 290 290 290 290 289 289 289 289 289 289 289 288 288 288 288 288 288 287 287 287 287 287 287 286 286 285 285 285 285 285 285 285 285 285 285 285 285 285 285 285 285 284 284 284 284 284 284 284 284 284 284 284 284 284 284 284 284 283 282 282 281 279 279 280 280 282 283 283 283 283 283 285 285 286 286 286 286 286 286 286 286 287 287
290 290 290 290 290 290 290 290 289 289 289 289 288 288 288 288 288 288 288 287 287 287 287 287 286 286 285 285 285 285 285 285 285 285 285 285 285 285 285 285 284 284 284 284 284 284 284 284 284 283 283 283 283 283 283 282 282 282 282 282 282 282 281 280 279 279 279 280 281 282 282 282 282 283 283 284 285 286 286 286 285 285 285 286 286
290 290 290 290 290 290 290 289 289 289 289 288 288 288 288 288 288 288 288 287 287 287 286 286 286 285 285 284 284 284 284 284 284 284 284 285 284 284 284 284 284 284 284 284 283 283 283 283 283 283 283 282 282 282 281 281 281 281 281 281 281 280 281 280 279 278 279 279 280 280 281 281 281 281 282 282 283 284 285 285 285 285 285 285 285
290 290 290 290 290 290 289 289 289 289 289 288 288 288 288 288 288 288 287 287 287 286 286 286 285 285 284 284 284 284 284 284 284 284 284 284 284 284 284 284 284 284 284 283 283 283 283 283 283 282 282 281 281 280 280 280 280 280 279 278 278 278 278 278 278 277 277 278 278 279 279 279 280 280 280 280 281 282 282 283 284 284 285 285 285
290 290 290 290 290 289 289 289 289 289 288 288 288 288 288 288 288 287 287 287 287 286 286 285 285 284 284 284 284 284 284 284 284 284 284 284 284 284 284 284 284 283 283 283 283 283 282 282 282 282 281 280 279 279 278 278 278 277 277 276 276 276 276 276 276 276 276 277 278 278 279 279 279 280 280 280 280 281 282 282 282 283 284 284 284
290 290 290 290 290 289 289 289 289 289 288 288 288 288 287 287 287 287 287 287 286 286 285 285 284 284 284 284 284 284 284 284 284 284 284 284 284 284 284 284 283 283 283 282 282 282 282 282 281 280 280 279 278 278 277 277 276 276 275 274 274 274 275 275 275 276 276 277 277 278 278 279 279 279 280 280 280 281 281 282 282 282 283 283 283
290 290 290 290 289 289 289 289 289 288 288 288 288 287 287 287 287 287 287 286 286 285 285 284 284 283 283 283 283 283 283 284 284 284 284 284 284 284 283 283 283 283 282 282 282 281 281 281 280 279 279 278 277 277 277 277 276 276 275 274 273 273 273 274 274 275 275 276 276 277 277 277 278 278 279 279 279 280 281 281 282 282 282 283 283
290 290 290 289 289 289 289 289 288 288 288 288 288 287 287 287 287 287 286 286 286 285 285 284 283 283 283 283 283 283 283 283 283 283 283 283 283 283 283 283 282 282 282 281 281 280 280 280 279 279 278 278 277 277 277 277 276 276 275 275 274 273 272 273 273 274 274 275 275 275 276 276 276 276 277 277 278 278 279 280 281 281 282 282 282
290 290 290 289 290 289 289 288 288 288 288 288 287 287 287 287 287 286 286 286 285 285 284 284 283 283 283 283 283 283 283 283 283 283 283 283 283 283 282 282 282 281 281 280 280 280 279 279 278 278 278 277 277 276 276 276 276 276 276 275 274 273 272 272 273 273 273 274 274 274 275 275 275 275 275 276 276 277 277 278 279 279 280 281 281
290 290 290 290 290 289 289 288 288 288 288 287 287 287 287 287 286 286 286 286 285 284 284 283 283 283 283 283 283 283 283 283 283 283 283 283 282 282 282 282 281 281 280 280 279 279 279 278 278 278 277 277 276 276 276 275 275 275 275 274 274 273 273 272 272 273 273 273 273 273 274 274 274 274 274 275 275 275 275 276 277 278 279 280 281
290 290 290 290 289 289 288 288 288 288 288 287 287 287 287 287 286 286 286 285 285 284 283 283 282 282 283 283 283 283 283 283 283 283 282 282 282 281 281 281 281 280 280 279 279 278 278 278 277 277 277 276 276 275 275 275 274 274 273 273 273 273 273 273 273 273 273 273 273 273 274 274 274 274 274 274 275 275 276 276 277 277 278 278 279
291 290 290 290 289 288 288 288 288 288 288 287 287 287 287 287 286 286 286 285 284 283 283 283 282 282 282 283 283 283 282 282 282 282 282 282 281 281 281 280 280 280 279 279 278 278 277 277 277 277 276 276 276 275 275 274 273 272 272 272 273 273 273 274 274 274 274 274 274 274 274 274 274 274 275 275 276 276 277 277 277 278 278 278 278
291 291 290 289 289 288 288 288 288 288 287 287 287 287 287 286 286 286 285 285 284 283 283 282 282 282 282 282 283 283 282 282 282 282 282 281 281 281 280 280 280 279 279 278 278 278 277 277 276 276 276 276 276 275 274 273 272 272 273 273 274 274 274 274 275 275 275 275 275 275 275 275 275 276 276 276 276 277 277 277 277 277 277 277 277
291 291 290 289 289 288 288 288 288 288 287 287 287 287 287 286 286 286 285 284 283 283 282 282 282 282 282 282 282 282 282 282 282 281 281 281 280 280 280 280 279 279 278 278 278 277 277 277 276 276 276 276 275 275 274 273 273 273 274 274 274 275 275 275 276 276 276 276 276 276 276 276 276 276 277 277 277 277 277 276 276 276 276 276 276
291 291 290 289 288 288 288 288 288 287 287 287 287 287 287 286 286 285 285 284 283 282 282 282 282 282 282 282 282 282 282 281 281 281 281 280 280 279 279 279 279 278 278 278 277 277 277 277 275 274 274 274 274 274 274 274 274 274 275 275 275 276 276 276 276 276 276 276 276 276 276 276 276 276 276 276 276 276 276 276 276 276 276 276 276
291 291 290 289 288 288 288 288 288 287 287 287 287 286 286 286 285 285 284 283 282 282 282 282 282 282 282 282 282 282 282 281 281 280 280 280 279 279 279 278 278 278 278 278 277 277 276 275 274 273 272 272 273 273 274 275 275 276 276 276 276 276 276 276 276 277 276 276 276 276 276 276 276 276 276 276 276 276 276 275 276 276 276 276 276
291 290 289 289 288 288 288 288 287 287 287 287 286 286 286 286 285 285 284 283 282 282 281 281 282 282 281 281 281 281 281 281 280 280 279 279 278 278 278 278 278 278 278 276 275 275 274 274 273 273 273 273 273 274 275 276 277 277 277 277 277 277 277 277 277 277 277 276 276 276 276 276 275 275 275 275 275 276 275 275 275 275 275 275 275
290 289 289 288 288 288 288 288 287 287 287 286 286 286 286 285 285 284 283 282 281 281 281 281 281 281 281 281 281 280 280 280 280 279 279 278 278 278 278 278 278 277 276 274 273 273 273 273 273 273 273 273 274 275 276 277 277 277 277 277 277 277 277 277 277 276 276 276 276 276 276 276 275 275 275 275 275 275 275 275 275 275 275 275 275
289 289 289 288 288 288 288 287 287 287 286 286 286 286 286 285 285 284 283 282 281 281 281 281 281 281 281 281 281 280 280 279 279 279 278 278 278 278 277 277 276 275 274 274 273 273 273 273 273 273 273 274 275 276 277 277 277 277 277 277 277 277 277 277 276 276 276 276 276 275 275 275 275 275 275 276 276 276 276 275 275 274 274 274 275
289 289 288 288 288 288 287 287 287 286 286 286 286 286 285 285 284 283 282 281 281 281 281 281 281 281 281 281 280 280 279 279 278 278 278 278 278 277 277 277 276 274 273 273 273 273 273 272 273 273 274 275 275 275 276 276 276 277 276 276 276 276 276 276 276 275 275 275 275 275 275 275 275 275 276 276 276 276 275 275 274 274 274 274 274
289 288 288 288 288 287 287 287 286 286 285 286 286 286 285 285 284 283 281 281 281 281 280 281 281 281 281 281 280 280 279 279 278 278 278 277 277 277 277 276 275 274 273 273 273 273 273 273 273 273 274 274 274 274 274 275 275 276 275 275 275 275 275 275 275 275 275 275 275 275 275 276 276 276 276 276 275 275 275 275 275 275 274 274 274
288 288 288 288 288 287 287 286 286 285 285 285 286 285 285 284 283 282 281 280 280 280 280 280 280 281 281 281 280 280 279 279 278 277 277 277 277 277 277 276 275 273 273 274 274 274 274 274 274 274 274 274 274 274 275 275 275 275 275 275 275 275 275 275 275 275 276 276 276 275 275 275 274 274 274 274 275 275 276 276 276 276 276 275 275
288 288 288 288 288 287 287 286 286 285 285 285 285 285 285 284 283 282 281 280 280 280 280 280 280 280 280 280 280 280 279 278 278 277 277 276 276 277 277 275 274 273 274 274 275 275 275 275 275 275 275 275 274 274 274 274 274 274 275 275 275 275 275 275 275 275 276 276 275 275 274 274 273 273 274 274 275 276 277 276 276 277 277 277 276
288 288 288 288 288 287 287 286 285 285 285 285 285 285 285 284 283 281 280 280 280 280 280 280 280 279 279 279 279 279 278 278 278 277 276 276 276 276 275 273 273 274 274 274 274 274 274 274 274 275 275 275 275 275 274 274 274 274 274 274 274 274 274 274 275 275 275 275 275 274 274 273 273 273 274 274 275 277 277 276 276 277 277 276 276
288 288 288 288 288 287 287 286 285 285 285 285 285 285 284 283 282 281 280 279 279 279 279 279 279 279 278 278 278 278 278 278 277 276 275 275 274 273 272 272 272 273 273 273 273 273 273 273 274 274 275 275 275 275 275 275 275 274 274 274 274 274 274 274 274 274 275 275 275 274 274 273 273 273 273 274 275 277 277 276 275 276 277 276 276
288 288 288 288 288 288 287 286 285 285 285 285 285 285 284 283 282 281 280 279 279 279 279 279 278 278 278 278 278 277 277 277 276 274 274 273 272 272 272 272 272 272 272 272 272 272 272 273 273 274 274 274 274 274 275 275 275 275 274 274 274 274 274 274 274 274 274 274 274 274 274 273 273 273 274 274 274 275 276 275 276 276 276 276 277
288 288 288 288 288 287 287 286 285 285 285 285 285 285 284 282 281 280 279 279 278 278 278 278 278 277 277 277 277 276 276 275 274 274 274 273 272 272 273 272 272 272 272 272 272 272 272 272 273 273 273 273 273 273 273 273 274 274 274 274 274 273 273 273 273 273 273 274 274 274 274 273 273 273 274 274 275 275 275 275 276 276 276 276 277
288 288 288 288 288 287 286 285 285 285 285 285 285 284 283 282 280 280 279 279 278 278 278 277 277 276 276 276 275 275 275 274 274 274 273 272 271 273 273 273 272 272 272 272 272 272 272 272 273 273 273 273 272 272 272 272 272 272 272 273 273 273 272 272 272 272 273 273 273 274 273 272 272 273 274 274 275 275 275 275 276 276 276 276 277
287 287 288 287 287 286 286 285 285 285 285 284 284 284 283 281 279 279 278 279 278 277 277 276 276 276 275 275 275 274 274 274 273 273 272 271 271 273 273 273 272 272 272 272 272 272 272 272 272 272 272 272 272 272 271 271 271 271 271 271 272 272 271 271 271 272 272 272 273 273 272 272 272 273 274 274 274 275 275 275 276 276 276 277 277
287 287 287 287 286 286 285 285 284 284 284 284 283 283 281 280 279 278 278 278 278 277 276 276 276 275 275 275 274 274 274 273 273 273 272 271 272 273 273 272 272 272 271 272 272 272 272 272 272 272 272 272 271 271 271 271 270 270 270 270 270 271 271 271 271 271 271 272 272 272 271 272 272 273 273 274 274 274 274 275 275 276 277 277 278
286 286 286 286 286 285 285 284 284 284 284 283 282 281 280 279 279 278 278 277 277 276 276 275 275 275 275 274 274 274 273 273 273 272 271 272 272 273 272 272 272 271 271 272 272 272 272 272 272 272 272 271 271 271 271 271 270 270 270 270 270 270 270 270 270 270 271 270 270 270 271 271 271 272 272 273 273 273 274 274 275 276 276 277 277
285 285 285 285 285 284 284 283 283 283 283 282 281 280 279 278 278 278 278 277 277 276 275 274 274 274 274 274 274 274 273 273 272 272 271 272 272 272 272 272 272 271 271 272 271 271 271 271 271 271 271 271 271 271 271 271 271 271 271 271 271 270 270 270 270 270 269 269 270 270 270 271 271 271 271 272 272 273 273 274 274 275 276 276 277
285 285 285 285 284 283 283 283 283 283 282 281 280 279 278 278 277 277 277 277 277 276 275 274 273 273 274 273 274 274 273 273 272 271 271 271 271 272 272 272 272 272 272 271 271 271 271 271 271 271 271 271 271 271 271 271 271 271 271 271 271 271 270 269 269 269 269 269 270 270 270 271 271 271 271 271 272 273 273 274 274 274 275 276 277
284 284 284 283 283 282 282 282 282 282 281 280 279 278 278 277 277 276 276 276 276 275 275 274 273 273 273 273 273 273 273 272 271 271 271 271 271 271 271 271 271 272 271 271 271 271 271 270 270 270 270 271 271 271 271 271 271 271 271 272 272 271 270 269 268 268 269 269 270 270 270 270 271 271 271 271 272 272 273 273 274 274 275 276 276
284 283 283 282 282 282 282 281 281 280 280 279 278 277 277 276 276 276 276 275 275 275 274 273 273 273 272 272 272 273 273 272 272 271 271 271 271 271 271 271 271 271 271 271 271 271 271 270 270 270 270 270 271 271 271 271 271 271 271 272 272 271 270 268 268 268 268 269 269 269 270 270 270 271 271 271 272 272 273 273 273 274 275 276 276
283 282 282 282 281 281 281 280 280 279 278 278 277 277 276 276 275 275 275 274 274 274 273 273 272 272 272 272 272 272 272 273 272 272 271 271 271 271 271 270 270 270 270 271 271 271 270 270 270 270 270 270 270 270 270 270 270 270 271 271 272 272 271 270 269 269 268 269 269 269 270 270 270 271 271 271 271 272 272 273 273 274 274 275 276
282 281 281 281 281 280 280 279 279 278 278 277 276 276 275 275 274 274 274 274 273 273 273 272 272 272 271 271 271 271 272 272 272 272 271 271 271 271 270 270 270 270 270 270 270 270 270 270 270 270 270 270 270 270 270 270 270 270 270 271 271 272 271 270 269 268 268 268 269 269 270 270 270 271 271 271 271 271 272 273 273 273 274 274 275
281 281 280 280 280 279 279 279 278 278 277 276 276 275 275 274 274 273 273 273 273 273 272 271 271 271 271 271 271 271 271 272 272 272 271 271 271 271 270 270 270 270 270 270 270 270 270 270 270 270 270 270 270 270 270 270 270 270 270 270 270 271 271 271 270 269 268 269 269 269 270 270 270 270 271 271 271 272 272 273 273 273 274 274 275
280 280 279 279 278 278 278 278 277 277 276 276 275 275 274 273 273 272 272 272 272 272 271 271 271 271 270 270 270 270 271 271 272 271 271 271 271 270 270 270 270 270 269 269 269 270 270 270 270 270 270 270 270 270 270 270 270 270 270 270 270 270 271 271 271 269 269 269 270 270 270 270 270 270 270 271 271 272 272 272 273 273 274 274 275
279 278 278 278 278 277 277 277 276 276 276 275 274 273 273 272 272 272 272 271 271 271 271 270 270 270 270 270 270 270 270 271 271 271 271 270 270 270 270 270 270 270 269 269 269 269 270 270 270 270 270 270 270 270 270 270 270 270 270 270 270 270 270 271 271 270 269 270 270 271 270 270 270 270 270 271 271 271 272 272 273 273 273 274 274
278 277 277 277 276 276 276 276 275 275 274 274 273 272 272 272 271 271 271 270 270 270 270 270 270 270 270 270 270 270 270 270 270 270 270 270 270 270 270 270 270 270 270 269 269 269 269 269 270 270 270 270 270 270 270 269 269 269 269 269 269 269 269 270 270 270 270 270 270 271 271 271 271 271 271 271 271 271 271 272 272 272 273 273 273
277 276 276 276 275 275 275 274 274 274 273 273 272 271 271 271 270 270 270 270 269 269 269 269 269 269 269 269 269 269 269 269 270 270 270 270 269 269 269 269 270 270 270 269 269 269 269 269 269 270 270 270 270 270 269 269 269 269 269 269 269 269 269 269 270 270 270 270 270 271 271 271 271 271 271 271 271 271 271 271 272 272 272 272 273
275 275 274 274 274 274 273 273 273 272 272 272 271 270 270 270 269 269 269 269 269 269 269 269 268 269 269 269 269 269 269 269 269 269 269 269 269 269 269 269 269 269 269 269 269 269 269 269 269 269 270 270 270 270 270 269 269 269 269 269 269 269 269 269 269 269 270 270 270 270 270 271 271 271 271 271 271 271 271 271 271 272 272 272 272
274 274 273 273 273 272 272 272 271 271 271 270 270 269 269 269 268 268 268 268 268 268 268 268 268 268 268 268 268 268 268 268 268 268 268 268 268 268 269 269 269 269 269 269 269 269 269 269 269 269 269 269 270 270 270 270 269 269 269 269 269 269 269 269 269 269 269 270 270 270 270 270 271 271 271 271 271 271 271 271 271 271 271 271 271
273 272 272 271 271 271 270 270 270 269 269 268 268 268 268 267 267 267 267 267 267 267 268 268 268 268 267 267 267 267 267 267 268 268 267 267 267 267 268 268 268 268 268 268 268 268 268 268 268 268 268 269 269 269 269 269 269 269 269 269 269 269 269 269 269 269 269 269 270 270 270 270 270 271 271 271 271 271 271 271 271 271 271 271 271
271 271 270 269 269 269 268 268 268 267 267 267 267 267 267 267 267 267 267 267 267 267 267 267 267 267 267 267 267 267 267 267 267 267 267 267 267 267 267 267 267 267 267 267 267 267 267 267 267 267 268 268 268 268 268 269 269 269 269 269 269 269 269 269 269 269 269 269 269 270 270 270 270 270 271 271 271 271 271 271 271 271 271 271 271
270 269 268 268 267 267 267 266 266 266 266 265 265 265 266 266 266 266 266 266 266 266 267 267 267 266 266 267 267 267 267 267 267 267 267 267 267 267 267 267 267 267 267 267 267 267 267 267 267 267 267 267 267 268 268 268 268 268 268 268 268 268 268 268 268 268 268 269 269 269 270 270 270 270 270 270 271 271 271 271 271 271 271 271 271
268 267 267 266 265 265 265 265 265 265 264 264 264 264 265 265 265 265 265 265 266 266 266 266 266 266 266 266 266 266 267 267 267 267 267 267 267 267 267 267 267 267 267 267 267 267 267 267 267 267 267 267 267 267 267 267 268 268 268 268 268 268 268 268 268 268 268 268 268 269 269 269 270 270 270 270 270 270 270 270 271 271 271 271 271
Wind_Speed
9 9 8 7 6 4 3 4 4 5 6 7 9 10 12 13 14 15 15 15 15 15 15 16 16 17 18 19 20 21 23 24 26 27 28 29 31 31 32 32 33 33 34 35 35 36 38 39 41 42 43 45 46 47 48 48 47 46 44 42 40 38 37 37 41 51 56 53 51 51 50 50 52 52 50 49 47 44 44 43 42 41 40 39 38
11 10 9 7 6 4 4 4 5 6 8 10 12 14 15 16 16 17 17 17 17 17 18 18 19 20 21 22 23 24 26 27 28 30 31 32 33 33 33 34 34 34 35 36 37 38 39 40 40 42 42 44 45 46 48 48 49 49 48 45 44 42 39 38 40 47 54 55 52 52 51 49 51 52 51 51 51 47 46 45 43 43 42 42 41
12 11 9 7 5 4 4 4 6 8 11 13 15 16 17 17 17 17 18 18 19 19 20 21 21 22 23 24 25 26 28 29 30 32 33 33 34 34 33 34 34 35 36 37 39 40 41 42 42 43 43 44 44 44 45 46 47 48 49 47 46 46 42 38 39 43 50 55 54 53 52 50 50 51 50 51 53 52 51 49 46 45 44 43 43
13 11 9 7 5 4 4 6 8 11 13 14 16 16 17 17 17 18 19 19 20 20 21 22 22 23 24 25 27 28 29 31 32 33 33 33 33 33 33 33 34 36 37 39 40 41 42 43 43 44 44 44 45 44 43 44 44 45 46 46 46 47 45 41 38 39 44 52 55 54 52 51 52 52 51 50 51 52 52 52 50 47 46 44 43
14 11 9 7 6 6 7 9 11 13 14 15 16 17 18 18 19 19 20 21 21 22 22 23 23 24 26 27 28 29 31 32 33 33 33 33 33 32 33 34 35 37 39 40 41 41 42 42 42 42 43 44 44 43 42 41 41 41 41 42 42 44 45 42 39 37 38 45 52 53 50 49 49 50 50 49 49 50 51 52 51 50 48 47 45
14 11 9 8 7 8 9 11 12 14 16 17 17 18 19 20 20 21 22 23 23 23 23 24 24 25 27 28 29 30 32 32 33 33 33 32 32 32 33 35 37 38 40 40 41 41 41 41 41 41 41 41 41 40 39 39 38 38 37 37 37 38 40 40 37 34 33 37 43 45 44 42 40 42 46 46 46 49 49 49 49 49 48 48 47
14 12 10 9 9 9 10 12 14 15 17 18 19 20 20 21 22 23 24 24 24 24 24 24 25 27 28 29 30 31 32 32 32 32 32 32 32 33 35 36 38 40 41 41 41 41 41 41 40 40 39 39 38 37 37 36 36 35 34 33 34 33 35 37 36 35 35 36 40 44 45 44 40 38 41 42 43 47 48 48 48 47 46 46 47
14 12 11 10 10 11 12 13 15 16 17 18 19 20 21 22 23 24 25 25 25 25 25 25 26 28 29 30 30 31 31 31 32 31 31 32 33 34 36 38 40 41 41 42 42 41 41 40 40 39 38 37 36 35 34 33 33 33 31 29 30 30 30 32 33 34 35 37 41 43 41 39 35 31 31 31 32 37 38 37 41 45 44 43 44
15 13 11 11 11 12 13 15 16 16 16 18 19 21 22 23 24 24 25 25 25 25 25 26 27 29 29 30 30 31 31 31 31 31 31 33 34 36 37 39 40 42 42 42 42 41 41 40 40 39 37 35 34 33 32 30 28 29 29 27 27 27 27 28 28 29 30 32 36 36 34 33 30 27 26 24 23 26 27 26 32 42 44 42 43
15 13 12 11 12 13 15 16 16 15 16 17 19 21 22 23 24 25 25 25 25 26 26 27 29 29 30 30 30 30 30 30 30 30 31 33 35 36 38 40 41 42 42 42 42 41 40 40 40 38 37 34 32 31 29 27 24 24 25 25 26 27 27 28 28 27 28 30 32 33 33 33 30 26 27 26 24 25 26 25 28 34 35 36 41
15 14 13 13 14 15 16 16 15 16 17 18 20 22 23 24 25 25 25 26 26 26 27 28 29 30 30 30 30 30 29 29 29 30 31 32 35 37 39 40 41 41 42 42 42 41 40 39 39 38 37 35 32 30 27 25 23 22 22 21 21 22 24 27 28 27 28 30 32 32 32 34 33 29 28 27 25 25 26 27 27 30 31 31 37
16 15 14 15 16 16 16 16 16 17 18 20 21 23 24 25 25 26 26 26 26 26 27 29 29 30 30 30 30 29 28 28 29 30 31 32 34 36 38 40 40 41 41 41 40 40 40 40 39 39 38 35 33 30 27 25 23 22 22 21 19 19 19 21 24 26 28 30 33 33 31 33 35 31 27 26 26 26 27 28 28 29 31 29 30
17 16 16 17 17 16 16 16 17 18 19 21 22 24 25 26 26 26 26 26 26 27 28 29 29 29 29 29 29 28 28 28 29 30 31 32 34 36 37 39 39 40 40 39 39 40 40 40 40 39 38 36 33 29 27 26 24 23 22 21 21 21 21 22 23 25 27 30 34 35 32 31 34 31 26 25 27 30 31 31 29 30 33 34 32
19 19 19 18 18 17 17 17 18 20 21 22 23 25 26 26 26 27 27 26 27 27 28 29 29 28 29 29 29 28 28 28 29 30 31 32 34 35 37 38 39 39 39 39 39 39 39 39 39 38 37 35 32 28 26 25 25 25 25 26 28 28 29 29 27 26 27 28 32 34 31 30 33 32 28 27 30 33 34 34 34 33 35 38 38
21 21 21 19 18 18 18 19 20 22 23 23 24 25 26 27 27 28 27 27 27 28 29 29 28 28 28 28 29 28 27 28 29 30 31 32 33 35 36 37 38 39 39 39 38 38 38 37 37 37 36 34 30 26 25 26 27 28 30 32 34 34 33 31 29 29 30 30 31 34 34 32 32 32 30 30 33 35 35 37 37 35 35 37 38
24 24 22 19 19 19 20 20 22 24 24 24 25 26 27 28 28 29 28 28 28 28 29 29 28 28 28 28 28 28 27 28 29 30 31 32 33 35 36 37 38 38 38 38 37 37 36 35 35 35 35 33 29 24 23 25 28 31 34 36 37 37 35 33 30 31 32 32 33 34 34 33 33 33 32 31 31 33 34 35 35 33 34 37 37
27 25 22 20 20 21 21 23 24 25 25 25 26 26 27 28 29 29 29 28 28 28 29 28 28 28 28 28 28 28 28 28 29 30 31 31 32 34 35 36 37 37 36 36 36 35 34 33 33 34 35 33 30 26 24 26 30 33 35 36 36 37 36 35 34 33 33 32 33 33 32 32 32 32 32 30 30 31 32 33 32 31 32 35 35
28 25 22 21 22 23 24 25 26 26 26 26 26 27 27 28 29 30 29 29 28 29 29 28 27 27 27 28 28 29 29 29 29 30 30 30 32 33 34 35 36 36 36 35 34 34 33 33 33 34 35 35 33 30 28 28 32 33 34 35 37 38 38 37 37 37 36 35 35 34 32 31 31 32 32 32 31 30 30 32 32 31 32 34 34
28 25 23 23 24 25 26 26 27 27 27 27 26 27 28 29 30 30 29 29 29 29 29 28 27 27 27 27 28 29 30 30 29 30 30 30 30 32 33 34 34 34 35 35 35 34 34 34 34 34 35 35 33 31 29 27 29 31 33 36 40 42 42 40 40 39 39 38 36 35 33 32 33 35 35 35 33 32 32 33 32 31 33 34 34
25 24 24 25 26 27 28 28 28 28 28 27 27 27 28 29 30 30 29 29 29 29 28 27 27 27 27 27 27 28 30 30 29 30 29 28 28 29 30 32 33 34 34 34 35 35 35 35 35 35 34 33 31 30 28 26 27 31 35 38 41 43 42 41 40 39 38 37 35 34 34 35 36 38 38 37 36 35 35 34 32 31 33 35 35
24 25 26 26 27 29 29 29 29 29 28 28 27 27 28 29 30 30 29 29 29 29 28 27 27 27 27 27 27 28 29 30 29 29 28 27 27 27 28 30 31 32 33 33 33 35 36 37 37 36 34 32 31 31 29 28 30 33 37 39 40 40 39 39 39 37 36 35 35 36 37 37 38 38 38 38 38 39 38 37 35 33 32 34 35
25 26 27 27 28 29 30 30 30 29 29 28 27 27 28 29 30 30 29 30 29 29 28 27 28 28 27 27 28 28 28 29 28 28 27 26 26 26 26 27 27 27 30 33 34 35 37 38 38 36 34 33 33 33 32 31 32 34 37 38 36 35 35 37 37 36 35 35 37 39 39 39 39 39 40 40 41 41 39 37 35 33 31 32 34
26 27 27 28 28 29 30 31 30 30 29 28 27 27 28 29 29 29 29 30 29 29 28 27 28 28 28 28 28 28 28 27 26 26 26 25 25 24 24 25 24 24 28 32 34 35 36 37 37 35 34 33 33 33 32 32 32 32 33 33 32 32 33 35 36 36 36 36 37 38 39 39 39 39 39 39 38 35 33 31 30 30 30 31 32
27 27 27 27 28 29 30 31 30 29 28 28 27 27 28 28 29 29 29 29 29 29 28 28 28 29 29 29 29 29 29 27 25 24 24 24 23 23 23 24 24 24 26 29 32 34 36 36 35 34 33 32 32 32 32 32 30 29 28 28 29 30 32 32 33 33 33 33 34 35 35 34 34 34 34 33 31 28 27 27 28 29 30 32 32
27 26 26 26 27 29 30 30 30 29 28 28 28 27 28 29 29 28 28 29 29 28 28 28 28 29 29 30 30 31 31 28 25 23 23 22 22 22 24 24 24 25 27 30 32 34 35 35 35 34 34 32 31 31 31 31 29 27 25 25 27 27 27 27 27 28 29 30 30 31 30 30 30 30 30 29 27 25 25 26 28 28 29 31 33
27 26 25 26 27 29 30 30 29 28 28 28 28 28 28 29 29 28 28 28 28 28 27 27 28 29 29 30 31 32 32 29 25 24 23 23 22 23 25 26 27 28 29 31 31 32 33 33 34 35 34 33 32 31 31 30 29 27 25 24 25 26 26 27 27 28 29 30 30 31 31 30 29 29 28 28 27 25 26 28 30 29 29 30 33
28 26 26 26 27 29 29 29 29 29 29 29 28 28 29 29 29 29 28 28 27 27 27 27 28 28 29 30 31 31 31 29 26 25 24 24 24 25 26 28 30 31 31 31 32 32 33 33 33 33 33 31 30 29 29 29 29 28 27 25 24 25 27 27 28 28 28 27 27 29 30 29 28 27 27 28 28 26 26 29 31 31 30 30 34
30 28 26 27 28 28 29 29 29 29 29 29 29 29 29 29 29 29 28 27 27 26 27 27 27 28 29 30 30 31 31 28 26 25 25 24 24 24 25 28 31 32 32 32 33 33 33 33 32 31 30 29 27 26 26 26 26 27 27 26 25 25 26 27 27 26 25 24 25 27 27 27 27 27 28 29 29 27 26 28 30 31 30 30 33
32 29 27 27 28 29 29 30 29 29 29 29 29 29 29 29 29 29 27 26 26 26 27 27 27 27 28 29 29 30 30 28 25 23 23 21 20 21 24 27 28 29 30 31 32 32 31 31 30 29 28 27 26 25 24 24 23 23 24 25 25 26 26 26 25 24 23 23 23 24 25 24 25 27 29 30 31 30 28 27 28 30 31 32 34
34 31 28 27 28 29 30 30 29 29 30 29 29 29 29 29 29 29 27 25 25 25 26 26 26 27 27 28 27 27 28 27 24 22 22 20 19 21 24 26 26 27 28 29 29 30 30 28 27 27 26 26 26 26 26 26 25 24 23 23 24 25 25 25 24 23 23 22 23 23 23 24 26 28 29 30 30 31 30 30 30 32 33 35 37
36 33 29 28 29 30 30 29 29 30 30 30 29 29 29 29 28 28 28 26 24 24 25 26 25 25 25 26 26 26 26 25 23 22 21 19 20 22 24 24 24 25 26 27 27 27 27 27 26 25 25 26 26 27 28 28 27 27 25 24 22 23 23 23 23 23 23 23 23 23 23 25 27 28 29 29 31 32 33 33 33 33 34 35 36
37 33 29 28 29 30 30 29 29 30 30 29 29 30 30 29 27 26 26 26 25 23 23 24 24 24 23 23 25 26 26 24 23 22 19 18 21 23 23 23 23 23 24 25 25 25 25 25 24 24 25 25 26 27 28 28 28 28 27 26 24 23 22 23 23 24 24 24 24 24 24 25 27 27 28 29 30 32 33 34 34 33 32 32 33
37 33 30 29 29 30 30 29 29 29 29 29 29 29 30 29 28 26 25 24 25 24 23 22 23 23 23 23 24 25 25 24 22 20 18 20 22 22 21 22 22 21 22 23 23 22 23 23 23 24 24 25 26 27 28 28 28 28 27 27 26 24 23 23 23 23 23 24 25 26 26 26 27 28 28 28 28 29 30 31 30 29 29 29 30
35 33 30 28 29 30 30 29 29 29 29 29 29 29 29 29 29 28 25 23 23 23 23 22 22 23 23 23 23 23 24 24 22 19 19 21 22 21 20 20 20 20 20 21 20 20 21 21 22 23 24 25 26 27 28 28 29 29 28 27 26 25 25 25 24 24 25 26 27 27 28 28 28 29 29 29 28 28 29 29 28 27 28 29 30
33 31 29 28 29 29 29 28 28 28 28 28 29 29 29 29 29 28 27 25 24 22 21 20 21 22 23 22 22 23 24 23 21 19 20 22 21 19 19 19 18 18 19 19 19 19 19 20 22 23 24 25 26 27 28 29 29 29 29 28 27 26 26 26 27 28 28 28 28 28 28 28 28 28 28 28 28 28 28 28 28 28 28 29 29
30 29 28 28 28 28 28 28 27 28 29 29 28 28 29 29 29 28 27 27 26 24 21 19 19 21 22 22 22 22 23 22 20 18 20 21 20 19 19 18 18 18 18 18 18 18 18 20 21 22 23 24 25 26 27 28 29 30 30 29 29 28 28 28 29 30 29 29 29 28 28 28 28 27 27 27 27 27 27 28 28 29 29 29 29
27 27 27 27 27 27 27 27 28 28 29 29 28 28 29 29 28 28 27 27 26 25 23 21 20 20 20 19 20 21 22 21 20 18 18 19 19 18 18 18 18 18 18 17 18 18 18 19 20 21 22 23 24 25 26 27 29 30 30 30 30 29 29 30 30 31 31 30 30 29 28 28 27 26 26 26 27 27 27 27 27 29 29 29 27
26 26 26 26 26 27 28 28 28 28 28 28 28 28 29 28 28 28 27 26 26 25 24 23 22 21 19 18 19 20 21 21 20 18 17 17 17 17 17 17 17 18 17 17 18 18 18 19 19 20 21 22 23 24 25 26 27 29 30 31 30 30 29 30 31 32 32 32 32 30 29 28 27 26 25 25 26 26 26 26 27 28 28 28 26
25 26 26 26 27 28 28 28 28 28 28 28 28 28 29 28 28 27 26 26 26 25 24 23 23 22 20 19 18 19 20 20 19 18 16 16 17 16 16 16 17 17 17 17 18 18 18 18 19 20 21 22 23 23 24 26 27 28 30 31 30 29 29 30 31 33 34 34 33 32 30 28 27 26 25 24 25 25 25 25 25 25 26 25 24
25 25 26 27 27 28 28 28 28 28 27 28 28 29 29 29 28 26 26 26 26 25 24 24 23 21 20 20 19 18 19 20 19 17 17 16 16 16 16 17 18 18 18 18 18 18 18 18 19 20 20 21 22 23 24 25 26 27 28 30 30 30 29 29 31 33 34 34 33 32 30 28 27 26 25 25 24 24 24 23 23 23 23 22 22
25 26 26 27 27 27 28 28 28 27 27 28 29 29 29 28 27 26 26 26 25 24 24 24 22 20 20 20 19 19 20 20 18 18 17 17 16 16 17 18 19 20 19 19 19 19 19 19 19 20 21 21 22 23 24 24 25 26 27 28 29 30 29 29 29 31 33 33 33 32 30 29 28 27 26 25 24 23 22 22 21 21 21 20 19
25 25 25 26 26 27 28 28 27 27 28 30 30 29 29 28 27 27 26 26 25 24 24 24 21 20 20 20 19 19 20 19 18 18 18 18 17 17 18 19 21 21 21 21 20 20 20 19 19 20 20 21 22 22 23 24 25 25 26 27 28 29 29 29 29 30 31 32 33 32 31 29 28 26 25 25 24 23 22 21 20 20 19 18 17
24 25 25 26 27 27 28 28 28 29 30 30 30 29 28 28 27 27 26 25 24 24 24 23 21 19 20 19 19 19 19 19 19 19 19 19 19 19 19 20 21 22 22 22 22 22 21 21 20 20 20 21 22 22 23 24 25 26 26 26 27 28 29 29 29 29 31 32 32 32 32 30 29 27 25 24 24 23 22 21 19 18 18 17 16
24 25 26 26 27 28 28 29 29 30 30 30 30 29 28 28 27 27 26 25 24 23 23 23 21 20 19 19 19 19 19 19 19 19 19 20 20 20 20 20 21 22 22 22 22 23 23 22 22 21 21 21 21 22 22 23 24 25 26 26 26 27 28 28 28 28 29 31 31 32 31 31 29 28 26 25 24 23 22 21 20 18 17 16 16
24 25 26 27 28 28 29 30 30 30 30 31 30 29 28 27 27 26 25 24 23 23 23 22 21 20 19 18 18 18 18 18 19 19 20 20 20 20 21 21 22 22 23 23 23 24 24 24 23 23 22 22 22 22 22 22 22 23 24 25 26 26 26 26 26 27 27 28 30 30 30 30 29 28 26 25 23 22 21 20 19 18 17 16 17
25 26 27 28 28 29 29 30 30 31 31 31 30 29 27 27 26 26 25 24 23 23 22 21 21 20 19 18 18 18 18 18 19 19 20 20 20 21 21 22 22 23 23 23 24 24 25 25 25 25 24 24 23 23 22 22 22 23 23 23 24 25 25 24 25 25 25 26 27 28 29 29 28 26 25 24 23 21 20 19 18 18 17 17 17
27 28 28 29 29 30 30 30 30 31 30 30 29 28 27 26 25 25 25 24 23 23 22 21 20 20 19 18 18 18 18 18 19 19 20 20 20 20 21 22 23 23 23 23 24 25 25 25 26 26 26 26 25 24 24 23 23 23 23 23 23 23 23 23 23 23 23 24 25 25 26 26 27 26 24 23 22 21 19 18 17 17 17 17 17
28 29 29 30 30 30 30 30 30 30 29 28 28 27 26 26 25 25 24 23 23 22 22 21 20 20 19 19 18 18 18 19 20 20 20 20 20 20 22 23 23 24 24 23 23 24 25 25 26 27 27 27 26 26 25 25 24 24 23 23 23 22 22 22 22 22 22 22 22 23 23 23 24 24 23 22 21 21 20 18 17 16 16 15 15
28 28 28 29 30 30 30 29 29 29 28 27 27 27 26 26 26 25 23 23 22 22 22 21 20 20 20 19 19 19 19 20 20 20 20 20 20 21 22 23 24 24 24 23 23 23 24 25 26 26 27 27 27 26 26 25 25 24 24 23 23 22 21 21 20 20 20 21 20 21 21 21 21 22 22 21 20 19 19 19 18 17 15 14 13
24 24 25 26 26 26 27 27 28 27 27 26 26 26 26 25 25 23 23 22 22 21 21 20 20 20 20 19 19 20 20 20 21 20 20 20 20 21 22 23 23 23 23 23 22 22 23 24 24 25 26 26 26 26 25 25 25 24 24 23 23 22 22 20 19 19 19 19 19 19 19 19 19 19 20 20 19 18 18 18 18 17 16 15 14
19 20 21 21 22 21 22 23 24 24 24 24 25 25 24 24 23 22 22 21 21 21 20 20 20 20 20 19 19 20 20 21 21 20 20 20 21 22 23 23 23 23 22 22 22 22 22 23 23 24 25 25 25 25 25 24 24 23 23 22 22 22 21 20 19 18 18 18 18 17 18 18 17 17 18 18 17 17 17 17 17 16 16 15 15
Wind_Direction
211 213 216 219 228 241 263 289 306 317 325 328 330 332 333 331 329 327 327 326 323 321 319 319 319 321 322 323 324 324 325 325 325 324 324 323 323 322 321 321 320 320 319 319 319 318 316 315 314 313 312 311 309 308 307 307 306 304 302 299 295 292 289 287 285 287 288 289 289 288 287 288 289 290 290 289 288 287 286 286 286 287 288 288 288
216 217 220 223 235 254 278 298 310 319 326 327 327 327 325 323 323 323 323 323 322 322 321 321 322 323 323 324 325 325 325 325 325 324 323 322 322 322 322 322 322 321 321 320 319 317 315 313 311 310 308 307 306 305 304 304 304 303 303 302 300 296 293 289 287 287 287 288 289 288 287 286 285 285 287 288 288 287 285 284 284 283 284 284 285
219 221 225 231 244 262 283 302 314 320 321 321 320 319 318 319 320 321 322 322 322 322 321 321 321 322 323 324 324 324 324 324 323 323 322 322 322 323 324 323 323 322 321 320 318 317 315 313 312 310 308 306 304 303 302 301 300 300 300 301 301 299 297 294 290 287 288 288 288 288 288 287 285 283 283 283 284 286 286 284 283 282 281 282 282
223 226 231 239 249 264 289 306 314 315 315 316 317 318 319 320 320 321 321 321 321 321 320 319 320 321 322 322 322 323 323 323 323 323 323 323 323 324 324 323 323 322 321 320 319 317 316 315 314 312 310 308 306 305 303 301 299 298 297 297 298 298 298 297 294 291 290 290 289 289 288 288 286 284 283 282 281 281 282 283 284 283 281 280 280
227 232 237 243 256 278 297 307 311 312 314 317 319 320 320 320 320 320 320 320 320 320 319 318 318 319 320 320 321 322 322 323 323 323 323 324 324 324 324 323 322 321 321 320 319 318 317 316 315 314 312 310 309 308 306 304 301 299 297 296 296 296 296 297 297 294 291 291 292 293 293 291 290 286 285 285 284 282 280 280 281 282 282 281 280
232 236 241 250 266 284 297 304 309 313 316 319 320 319 319 319 319 320 320 320 319 318 318 317 317 318 319 320 320 321 322 323 323 323 323 324 324 323 323 322 321 321 320 319 318 318 317 317 316 315 314 312 311 310 309 307 305 303 302 299 298 296 295 296 297 294 290 288 290 292 292 292 292 289 287 288 288 286 284 282 280 279 280 282 281
234 239 245 257 272 286 296 304 310 313 315 317 317 318 318 319 319 319 319 318 317 317 316 315 316 317 318 319 320 321 323 323 323 323 323 323 323 322 322 321 321 320 319 319 319 319 319 319 318 317 316 315 314 313 311 309 308 307 306 305 303 300 296 294 294 292 289 287 287 289 290 291 292 291 291 292 291 287 286 288 286 282 280 280 280
235 241 250 262 275 288 298 305 308 309 311 313 315 317 318 318 318 317 316 315 315 314 313 314 316 317 318 319 320 322 323 324 324 323 324 323 323 322 322 321 320 320 320 320 321 322 322 322 321 320 319 318 317 316 313 312 310 307 307 306 304 302 299 297 296 295 293 293 292 292 294 295 294 294 296 298 296 291 288 290 290 287 284 282 279
235 242 253 266 279 289 296 299 302 303 306 312 316 318 318 316 315 315 314 314 313 312 312 314 316 317 317 319 320 322 323 324 324 324 324 324 323 323 322 321 321 321 321 323 324 325 325 324 323 323 322 320 319 316 313 311 307 303 301 298 294 294 296 295 296 297 296 294 291 292 293 292 294 297 299 298 297 296 294 292 289 288 289 290 284
236 244 256 269 278 285 289 292 294 296 300 310 317 319 317 316 316 315 314 313 312 312 312 314 316 316 317 318 320 322 323 324 324 324 324 324 324 323 322 321 322 322 323 325 326 327 327 325 324 323 322 321 319 316 313 310 305 299 296 291 287 288 292 294 293 294 294 291 289 290 292 291 293 297 297 297 296 294 293 292 290 290 292 294 290
237 246 257 267 274 279 283 286 287 289 296 306 314 319 319 318 317 315 313 312 311 311 313 314 315 315 316 318 319 321 323 324 324 324 324 325 324 323 322 322 322 323 325 327 328 328 326 324 323 322 322 322 321 319 316 311 306 301 297 294 290 288 291 294 295 295 293 291 289 289 290 291 293 294 295 298 299 294 289 288 289 290 291 291 289
238 247 257 265 269 274 277 280 283 285 292 301 310 318 320 319 318 316 313 311 310 311 312 313 314 315 315 317 319 321 324 324 324 324 324 324 324 322 321 321 322 324 326 328 327 326 325 324 324 324 324 324 324 322 319 313 310 305 300 299 297 293 292 293 294 294 294 292 291 290 290 291 292 293 295 298 297 294 289 285 284 285 285 284 284
240 248 256 262 266 270 274 277 280 284 289 297 307 316 319 318 318 315 312 310 309 310 311 312 313 314 314 316 318 321 324 323 324 324 324 324 323 322 321 322 323 325 326 327 326 325 324 324 324 324 324 325 325 323 319 314 311 307 305 307 309 312 313 309 302 297 294 292 289 288 290 291 290 292 295 296 296 296 294 291 287 282 280 278 276
242 248 254 259 263 268 272 275 280 284 287 294 304 313 317 318 317 315 312 309 308 308 310 311 312 312 313 315 317 321 323 323 323 323 323 324 323 321 322 323 324 325 326 326 325 324 324 323 323 324 324 324 326 324 318 315 314 313 315 317 318 320 320 316 313 308 303 299 294 294 298 299 294 293 294 296 300 303 302 302 300 295 290 286 282
245 250 253 257 263 267 271 276 280 283 285 291 302 310 315 316 316 314 311 308 307 307 308 309 311 311 313 315 317 320 323 322 322 322 322 323 322 322 322 323 324 325 325 325 323 322 322 322 322 322 322 324 326 324 321 319 315 313 314 315 316 315 313 312 314 314 311 307 301 299 302 302 298 295 296 298 299 301 301 301 301 300 297 293 288
248 250 252 257 263 268 273 277 280 281 283 290 300 308 313 315 314 312 309 306 305 306 307 309 310 310 312 314 316 319 322 321 321 321 321 322 322 322 322 323 323 324 324 323 321 320 321 321 321 321 321 323 326 327 325 319 310 306 307 308 308 306 305 308 312 312 309 303 296 294 295 294 291 291 293 293 292 293 295 295 294 293 291 288 286
250 252 253 258 264 269 274 277 278 279 282 290 299 307 312 313 313 311 308 305 304 305 306 307 308 309 312 314 315 318 320 320 320 320 322 323 322 322 322 322 322 322 321 320 318 318 319 319 321 321 321 324 329 330 326 314 303 302 303 302 301 300 301 305 308 307 303 299 295 296 297 295 291 288 287 288 288 290 290 289 289 289 286 285 286
253 253 254 259 266 271 274 275 276 278 283 290 299 306 310 311 311 309 306 303 303 305 306 306 307 309 311 312 314 317 318 319 320 320 322 323 323 322 322 320 320 320 320 318 317 317 319 321 324 324 322 324 325 321 315 307 300 299 302 301 300 300 300 304 305 304 302 299 297 298 298 296 292 289 288 291 293 291 285 282 284 285 282 281 283
256 255 256 262 268 272 274 274 275 278 283 290 298 304 308 310 309 307 304 302 303 304 305 306 306 307 309 311 313 315 316 318 319 320 322 323 322 321 319 319 319 319 318 318 319 321 323 325 326 323 319 319 317 309 305 306 304 302 303 302 300 300 302 305 305 303 302 300 299 299 299 297 295 294 295 297 298 296 290 285 282 278 276 278 280
257 255 259 266 271 273 273 273 275 278 283 290 298 303 306 308 308 306 302 301 303 304 305 305 304 305 307 309 311 313 314 316 318 320 322 323 320 318 316 316 318 319 319 321 321 321 323 323 323 322 317 314 313 311 310 310 307 303 301 300 300 301 304 305 304 303 301 300 299 298 297 296 296 295 297 297 296 295 293 289 283 276 273 276 277
255 257 264 269 271 272 272 273 274 278 283 290 296 300 304 307 307 304 301 301 302 303 303 303 303 303 306 308 310 312 313 315 318 321 321 320 317 316 316 317 320 321 320 320 319 318 320 320 320 321 317 310 311 315 316 311 305 300 298 297 297 299 301 301 301 300 299 297 295 293 293 293 293 293 293 293 292 291 291 290 285 278 273 272 274
254 259 264 267 269 270 271 272 274 277 282 289 294 299 303 306 305 303 301 301 302 303 303 302 301 302 304 306 309 311 313 315 319 320 318 316 315 315 316 317 320 320 317 317 319 318 317 317 318 320 319 314 312 313 310 303 297 293 293 293 294 295 296 296 295 296 295 294 292 291 291 291 291 290 289 289 290 291 292 291 288 281 273 269 269
253 257 262 265 267 269 270 271 273 277 282 288 293 297 301 304 303 301 300 301 303 302 302 301 300 301 303 305 308 310 312 315 318 317 315 314 314 315 314 314 318 321 318 316 316 315 314 316 317 317 314 312 309 306 301 296 293 294 297 299 298 295 293 291 291 292 292 292 291 290 290 289 289 290 291 292 294 295 295 293 291 287 282 278 275
251 256 260 264 266 268 269 271 273 276 282 288 292 296 299 302 302 301 300 301 302 301 300 300 300 301 303 306 308 309 310 314 318 315 313 313 314 314 312 312 318 322 317 312 312 314 316 318 318 315 313 310 307 304 301 300 302 304 306 305 300 297 295 295 295 295 295 295 294 293 292 292 294 295 297 299 301 301 300 298 296 294 291 288 285
250 255 260 263 266 268 270 271 273 277 282 288 292 295 299 302 301 300 300 300 300 299 299 299 299 301 303 305 307 308 309 313 317 314 312 314 314 311 310 313 319 319 315 314 315 318 321 322 322 321 320 318 315 312 311 311 312 312 310 306 303 302 303 303 301 301 302 303 304 304 304 304 304 305 305 306 306 304 302 301 300 299 297 295 293
250 254 258 263 266 268 271 272 274 278 282 288 292 294 298 300 300 298 298 298 297 297 298 298 299 301 302 304 305 306 308 312 316 316 314 314 313 314 316 319 320 318 316 317 319 319 322 326 326 326 325 324 323 320 318 317 317 315 312 309 307 308 309 308 308 307 307 309 312 312 311 310 310 310 310 309 307 305 305 304 303 303 304 302 300
249 252 257 262 265 268 271 273 275 278 283 287 291 293 295 298 297 297 297 296 296 296 296 296 298 299 301 302 303 305 307 312 316 317 316 317 321 325 326 321 318 319 321 322 322 324 327 328 328 327 327 326 325 324 321 320 318 317 317 314 310 308 308 308 309 309 309 310 312 311 309 309 310 312 313 311 307 305 307 308 306 305 307 306 301
248 252 256 261 265 269 272 273 275 278 282 286 289 291 293 295 295 295 295 294 294 295 294 295 297 299 300 301 302 303 306 312 318 320 321 325 330 330 323 316 316 319 322 323 324 326 328 327 327 327 327 328 329 329 326 323 321 319 319 317 314 310 309 308 309 309 308 309 311 310 309 309 310 314 317 313 308 306 309 309 307 306 308 306 300
247 250 255 260 265 269 271 272 275 278 282 286 288 289 291 293 293 293 293 292 292 292 293 294 295 296 296 298 302 306 309 315 321 322 321 325 326 319 312 311 314 317 319 321 324 326 327 326 327 329 331 334 337 338 336 332 328 324 322 321 319 317 315 315 316 315 312 312 314 313 312 312 315 320 322 316 311 311 314 313 311 310 310 305 300
247 249 254 260 265 269 270 273 276 280 283 286 287 288 289 290 290 290 290 289 288 289 291 292 294 295 298 301 305 307 309 313 316 315 315 316 313 309 308 308 311 315 318 321 325 325 325 327 330 334 339 342 344 345 345 343 340 335 331 328 325 323 323 325 326 323 320 318 316 313 315 319 320 319 319 316 313 313 314 313 311 309 306 302 300
247 248 253 261 265 268 270 273 277 281 283 284 285 286 287 287 287 288 289 288 287 288 290 293 295 297 299 302 302 301 302 306 307 307 310 310 305 306 309 310 313 317 320 322 325 325 324 329 336 340 344 348 350 351 351 349 346 344 340 336 334 332 332 333 333 330 327 324 319 317 321 323 319 315 315 316 315 313 313 313 311 308 306 303 301
247 247 253 260 264 266 270 274 277 280 281 281 282 284 285 284 283 284 286 287 288 288 288 290 292 293 293 293 293 295 298 300 301 304 305 301 300 307 312 312 314 319 321 322 323 324 326 333 340 344 347 350 352 352 352 351 349 348 345 343 343 342 341 340 339 336 333 329 326 325 325 322 318 317 318 318 316 313 312 312 310 306 304 302 300
247 248 253 259 264 267 271 274 276 278 279 279 280 282 283 283 283 282 282 284 287 287 287 287 288 289 289 289 289 291 294 295 298 301 299 294 300 308 312 311 315 320 321 320 321 324 330 337 343 346 349 352 352 353 353 351 349 349 349 348 348 348 347 346 343 339 337 336 334 332 329 325 321 320 318 316 314 312 311 309 307 303 299 297 295
247 248 253 260 264 268 271 272 274 276 277 277 279 280 281 281 282 283 282 281 282 284 286 287 287 287 287 286 286 288 289 291 295 296 292 293 301 308 309 310 315 318 318 319 323 328 333 339 345 348 351 352 352 353 353 352 349 348 348 349 351 352 352 351 349 345 343 341 338 335 332 329 326 323 321 319 317 316 315 314 309 303 301 299 298
245 248 255 261 264 267 270 271 273 275 276 277 279 279 279 279 281 283 284 283 282 282 283 283 284 284 283 283 282 283 284 287 290 291 290 295 302 305 304 306 311 312 314 319 326 332 338 343 347 350 351 352 353 353 353 353 351 349 347 349 352 355 356 356 354 352 348 343 339 337 334 331 328 326 324 322 321 320 321 319 315 310 306 305 303
244 250 257 262 264 266 268 270 272 275 277 278 278 277 277 278 279 281 282 284 285 286 285 282 279 279 280 281 281 282 284 286 288 288 289 294 298 299 299 303 308 311 316 322 328 335 342 346 348 350 350 351 352 353 354 354 353 350 349 349 352 356 358 359 357 354 350 345 342 340 337 333 330 329 327 324 323 323 322 321 321 320 317 314 311
246 253 258 261 263 265 267 269 272 275 276 277 277 277 276 277 278 280 281 283 285 287 288 287 282 279 279 278 279 281 283 285 285 285 287 290 292 294 298 303 308 311 315 320 326 334 341 344 346 348 349 350 351 352 354 355 354 351 350 350 353 357 358 358 357 355 352 349 346 343 339 337 335 334 331 327 326 325 324 323 323 323 321 319 319
250 255 258 260 263 266 268 269 271 272 274 275 276 275 275 275 277 278 280 283 284 285 286 287 286 284 281 276 274 276 278 279 280 282 283 284 285 288 293 299 303 307 312 318 324 330 335 339 342 344 346 347 349 350 352 353 353 352 350 350 353 358 358 357 356 355 354 351 348 345 343 341 339 337 334 332 329 327 325 324 324 324 321 320 322
253 257 259 262 264 265 266 268 269 271 274 275 274 274 274 275 276 278 280 281 282 283 285 285 285 286 284 278 274 274 276 277 278 278 277 277 280 284 290 296 300 305 310 315 320 325 329 334 337 340 343 344 345 347 349 351 352 351 349 348 351 355 358 357 357 356 354 352 349 347 345 343 341 339 337 336 334 331 327 324 324 324 323 322 323
258 260 261 262 263 264 265 267 270 272 274 275 273 272 273 274 276 277 278 279 280 282 283 284 284 285 283 280 277 276 276 277 279 279 278 279 282 287 293 297 300 304 308 311 315 320 324 329 334 337 339 340 342 343 346 347 348 349 348 347 348 352 355 357 358 356 353 350 348 347 346 345 344 342 341 340 339 336 331 327 324 324 324 324 323
260 261 261 261 263 265 266 268 271 272 273 272 271 271 272 274 275 276 276 277 280 281 281 282 283 283 279 278 278 277 278 280 283 284 283 284 286 290 294 297 300 303 306 309 312 315 319 324 329 332 334 336 338 340 342 343 345 346 346 347 348 349 351 354 357 356 352 349 348 348 348 348 347 345 344 343 340 337 335 332 329 327 325 325 326
261 262 262 262 263 265 267 269 270 270 270 270 270 271 272 272 273 274 275 276 278 279 279 280 281 279 277 276 276 275 277 281 284 285 286 287 288 289 292 294 296 299 303 306 309 312 314 319 323 326 328 330 332 335 338 339 341 342 344 346 347 348 348 350 354 354 351 348 348 349 350 350 349 347 346 344 342 340 339 338 336 334 332 330 330
263 263 264 264 265 266 268 269 269 269 269 270 271 270 271 271 271 272 274 275 276 276 277 278 279 276 274 274 274 274 276 280 281 283 285 286 286 287 289 290 292 295 299 303 306 308 310 313 317 320 322 325 327 330 334 336 337 338 340 342 345 345 345 347 350 351 349 347 348 350 351 351 350 349 348 348 347 346 344 342 342 342 341 339 338
266 266 266 266 267 267 268 268 269 269 270 270 270 269 269 269 270 271 272 273 273 274 275 276 276 274 272 272 272 273 275 277 279 281 283 283 284 285 286 286 288 290 293 297 301 304 306 308 310 312 315 318 321 324 328 331 333 335 336 338 340 342 343 344 346 347 347 345 346 349 351 351 351 350 350 351 351 350 349 349 349 348 349 350 350
269 269 269 269 269 268 269 269 269 269 269 268 268 267 267 267 268 269 270 271 271 271 272 273 274 273 272 271 271 272 274 276 277 279 281 281 282 283 284 284 285 287 289 293 296 299 302 304 305 307 309 311 314 318 321 324 327 329 331 334 336 337 340 341 342 343 343 343 344 346 349 351 352 351 351 352 353 354 354 355 356 356 359 0 359
272 272 272 272 271 271 271 270 270 269 268 267 267 266 265 265 266 267 268 269 269 269 270 271 272 272 272 272 272 273 274 276 277 279 280 281 282 283 284 284 285 286 287 290 292 295 298 300 302 303 305 306 308 311 314 317 320 323 325 328 330 332 335 337 338 339 340 340 341 343 346 349 351 352 352 352 353 355 358 360 0 2 4 3 360
277 276 276 275 274 273 272 270 269 268 267 266 265 265 263 263 264 264 265 266 266 267 269 269 270 271 272 273 274 276 276 277 278 279 280 280 282 284 285 285 286 287 287 288 290 293 295 297 299 301 302 303 304 306 309 311 313 316 318 321 323 326 329 331 333 335 336 337 338 340 343 347 349 350 352 353 353 355 358 2 3 5 5 2 358
280 279 278 278 276 274 273 271 270 268 266 265 264 263 262 261 260 261 262 263 264 266 268 268 269 271 272 273 275 277 278 279 280 280 281 282 284 285 286 287 288 288 288 288 290 291 293 295 297 298 299 300 301 302 304 306 308 310 312 314 317 321 324 326 328 331 332 333 334 336 339 344 347 348 349 352 355 356 357 359 0 2 1 360 358
282 281 280 280 278 277 276 274 271 268 266 264 261 260 259 258 259 259 261 262 263 264 266 268 269 271 272 274 276 278 279 280 281 281 282 284 286 287 288 288 289 289 289 290 290 291 293 294 296 296 297 298 299 301 302 303 304 306 307 309 311 315 318 320 323 326 328 328 331 333 336 340 344 346 347 350 354 358 0 1 1 1 1 1 2
286 285 284 283 282 280 279 275 272 268 264 261 259 258 257 257 258 259 259 260 261 262 265 267 269 271 273 275 277 279 280 281 282 283 284 286 288 288 288 288 288 289 290 291 292 293 294 295 296 296 297 297 298 300 301 302 302 303 305 306 308 310 313 316 320 323 323 324 326 330 332 336 340 344 345 347 351 358 3 5 6 6 7 7 9
297 294 292 289 287 286 283 278 274 270 264 260 259 259 259 259 259 259 259 260 261 262 264 266 268 270 273 276 278 280 280 281 282 283 285 287 288 288 287 288 288 289 290 292 293 295 296 296 296 296 296 297 298 299 301 302 302 302 303 304 305 307 309 314 319 320 319 319 322 326 329 332 336 341 343 344 347 354 360 3 5 7 8 10 12